Curtis, Michigan, United States (49820)
Lat: 46.21N, Lon: 85.75W
Wx Zone: MIZ015
Local Info
Past Weather Observations for Today

NOTE: This archive is for the closest National Weather Service station to Curtis. Information may differ from the station used for current weather conditions.

Time Weather Temperature Dewpoint Humidity Pressure Winds Precip Visibility
16:54
Clear
43°F / 6°C 27°F / -3°C 53% 30.27 in
(1025 mb)
SE 16.1 mph
(SE 26 kph)
- 10SM
16:34
Clear
43°F / 6°C 27°F / -3°C 53% 30.3 in
(1026 mb)
SE 12.7 mph
(SE 20 kph)
- 10SM
16:15
Clear
43°F / 6°C 27°F / -3°C 53% 30.3 in
(1026 mb)
SE 16.1 mph
(SE 26 kph)
- 10SM
15:54
Clear
43°F / 6°C 27°F / -3°C 53% 30.33 in
(1027 mb)
SE 12.7 mph
(SE 20 kph)
- 10SM
15:34
Clear
43°F / 6°C 27°F / -3°C 53% 30.33 in
(1027 mb)
SE 13.8 mph
(SE 22 kph)
- 10SM
15:15
Clear
43°F / 6°C 27°F / -3°C 53% 30.33 in
(1027 mb)
SE 11.5 mph
(SE 19 kph)
- 10SM
14:54
Clear
41°F / 5°C 25°F / -4°C 53% 30.36 in
(1028 mb)
SE 15 mph
(SE 24 kph)
- 10SM
14:35
Clear
41°F / 5°C 25°F / -4°C 53% 30.36 in
(1028 mb)
SE 15 mph
(SE 24 kph)
- 10SM
14:15
Clear
41°F / 5°C 25°F / -4°C 53% 30.39 in
(1029 mb)
SE 12.7 mph
(SE 20 kph)
- 10SM
13:54
Clear
41°F / 5°C 25°F / -4°C 53% 30.39 in
(1029 mb)
SE 12.7 mph
(SE 20 kph)
- 10SM
13:35
Clear
41°F / 5°C 25°F / -4°C 53% 30.39 in
(1029 mb)
SE 13.8 mph
(SE 22 kph)
- 10SM
13:14
Clear
41°F / 5°C 25°F / -4°C 53% 30.42 in
(1030 mb)
SE 11.5 mph
(SE 19 kph)
- 10SM
12:54
Clear
39°F / 4°C 25°F / -4°C 56% 30.42 in
(1030 mb)
SSE 10.4 mph
(SSE 17 kph)
- 10SM
12:35
Clear
41°F / 5°C 25°F / -4°C 53% 30.42 in
(1030 mb)
SSE 15 mph
(SSE 24 kph)
- 10SM
12:14
Clear
39°F / 4°C 27°F / -3°C 61% 30.42 in
(1030 mb)
SE 10.4 mph
(SE 17 kph)
- 10SM
11:55
Partly Cloudy
41°F / 5°C 27°F / -3°C 57% 30.42 in
(1030 mb)
SSE 12.7 mph
(SSE 20 kph)
- 10SM
11:34
Clear
39°F / 4°C 25°F / -4°C 56% 30.42 in
(1030 mb)
SE 15 mph
(SE 24 kph)
- 10SM
11:14
Clear
39°F / 4°C 27°F / -3°C 61% 30.45 in
(1031 mb)
SE 11.5 mph
(SE 19 kph)
- 10SM
10:54
Clear
39°F / 4°C 27°F / -3°C 61% 30.45 in
(1031 mb)
SE 10.4 mph
(SE 17 kph)
- 10SM
10:34
Clear
39°F / 4°C 27°F / -3°C 61% 30.45 in
(1031 mb)
SSE 12.7 mph
(SSE 20 kph)
- 10SM
10:15
Clear
37°F / 3°C 27°F / -3°C 65% 30.45 in
(1031 mb)
SE 13.8 mph
(SE 22 kph)
- 10SM
09:55
Clear
37°F / 3°C 27°F / -3°C 65% 30.45 in
(1031 mb)
SSE 11.5 mph
(SSE 19 kph)
- 10SM
09:34
Clear
36°F / 2°C 28°F / -2°C 75% 30.45 in
(1031 mb)
SE 13.8 mph
(SE 22 kph)
- 10SM
09:15
Clear
34°F / 1°C 28°F / -2°C 81% 30.45 in
(1031 mb)
SE 12.7 mph
(SE 20 kph)
- 10SM
08:54
Clear
32°F / 0°C 30°F / -1°C 93% 30.48 in
(1032 mb)
SE 11.5 mph
(SE 19 kph)
- 10SM
08:34
Clear
30°F / -1°C 30°F / -1°C 100% 30.48 in
(1032 mb)
SE 8.1 mph
(SE 13 kph)
- 10SM
08:15
Clear
28°F / -2°C 28°F / -2°C 100% 30.48 in
(1032 mb)
SE 9.2 mph
(SE 15 kph)
- 10SM
07:54
Clear
28°F / -2°C 27°F / -3°C 93% 30.48 in
(1032 mb)
SE 8.1 mph
(SE 13 kph)
- 10SM
07:35
Clear
27°F / -3°C 25°F / -4°C 93% 30.51 in
(1033 mb)
ESE 8.1 mph
(ESE 13 kph)
- 10SM
07:15
Clear
23°F / -5°C 23°F / -5°C 100% 30.48 in
(1032 mb)
Calm - 10SM
06:54
Clear
23°F / -5°C 21°F / -6°C 93% 30.48 in
(1032 mb)
Calm - 7SM
06:34
Obscured
Fog And Mist
21°F / -6°C 21°F / -6°C 100% 30.48 in
(1032 mb)
Calm - 1 1/2SM
06:15
Overcast
Fog
21°F / -6°C 19°F / -7°C 93% 30.48 in
(1032 mb)
Calm - 1/4SM
05:55
Overcast
Fog
21°F / -6°C 19°F / -7°C 93% 30.48 in
(1032 mb)
Calm - 1/4SM
05:35
Overcast
Fog
23°F / -5°C 21°F / -6°C 93% 30.48 in
(1032 mb)
Calm - 1/4SM
05:14
Overcast
Fog
23°F / -5°C 21°F / -6°C 93% 30.45 in
(1031 mb)
Calm - 1/4SM
04:55
Overcast
Fog
23°F / -5°C 23°F / -5°C 100% 30.45 in
(1031 mb)
Calm - 1/4SM
04:35
Overcast
Fog
21°F / -6°C 21°F / -6°C 100% 30.45 in
(1031 mb)
NNE 3.5 mph
(NNE 6 kph)
- 1/2SM
04:14
Obscured
Fog And Mist
21°F / -6°C 19°F / -7°C 93% 30.45 in
(1031 mb)
Calm - 1SM
03:54
Obscured
Fog And Mist
23°F / -5°C 23°F / -5°C 100% 30.45 in
(1031 mb)
N 3.5 mph
(N 6 kph)
- 3/4SM
03:35
Clear
Fog And Mist
25°F / -4°C 23°F / -5°C 93% 30.45 in
(1031 mb)
N 3.5 mph
(N 6 kph)
- 5SM
03:14
Clear
Fog And Mist
23°F / -5°C 23°F / -5°C 100% 30.45 in
(1031 mb)
Calm - 4SM
02:55
Clear
25°F / -4°C 25°F / -4°C 100% 30.45 in
(1031 mb)
NNW 4.6 mph
(NNW 7 kph)
- 10SM
02:34
Clear
25°F / -4°C 25°F / -4°C 100% 30.45 in
(1031 mb)
N 4.6 mph
(N 7 kph)
- 10SM
02:15
Clear
Fog And Mist
25°F / -4°C 25°F / -4°C 100% 30.42 in
(1030 mb)
N 4.6 mph
(N 7 kph)
- 5SM
01:55
Clear
25°F / -4°C 25°F / -4°C 100% 30.42 in
(1030 mb)
Calm - 7SM
01:35
Clear
25°F / -4°C 25°F / -4°C 100% 30.42 in
(1030 mb)
N 5.8 mph
(N 9 kph)
- 10SM
01:15
Clear
27°F / -3°C 25°F / -4°C 93% 30.42 in
(1030 mb)
N 4.6 mph
(N 7 kph)
- 10SM
00:54
Clear
27°F / -3°C 27°F / -3°C 100% 30.42 in
(1030 mb)
NNW 5.8 mph
(NNW 9 kph)
- 10SM
00:35
Clear
28°F / -2°C 27°F / -3°C 93% 30.42 in
(1030 mb)
NNW 4.6 mph
(NNW 7 kph)
- 10SM
00:14
Clear
28°F / -2°C 27°F / -3°C 93% 30.42 in
(1030 mb)
NW 3.5 mph
(NW 6 kph)
- 10SM
Time Weather Temperature Dewpoint Humidity Pressure Winds Precip Visibility


Weather for websites

WeatherForYou.com, LLC is not responsible for any damages or problems caused by this service. Current weather conditions are obtained from the closest station including government and personal stations which may have varying degrees of accuracy. Weather forecasts are derived from the NOAA NDFD. Like all things, this site belongs to Jesus Christ... He just trusts me to maintain it. If you have any questions or comments email webmaster@weatherforyou.com

Copyright © 2014, WeatherForYou.com LLC. All rights reserved.